Home   Weather   Melbourne   Past weeks
Flag for USA

Past Weather in Melbourne, Florida, USA — Yesterday and Last 2 Weeks

Now
79 °F

Partly sunny.


Feels Like: 82 °F
Forecast: 85 / 73 °F
Wind: 12 mph from Northeast

Location: Melbourne International Airport

Current Time: Oct 17, 2019 at 5:51:48 pm

Latest Report: Oct 17, 2019 at 4:53 pm


Visibility: 10 mi

Pressure: 29.87 "Hg

Humidity: 74%

Dew Point: 70 °F

Location of MelbourneLocation

Past Weather in Melbourne — Graph

°F

Melbourne Temperature Yesterday

Maximum temperature yesterday: 90 °F (at 2:53 pm)
Minimum temperature yesterday: 75 °F (at 5:53 am)
Average temperature yesterday: 81 °F

High & Low Weather Summary for the Past Weeks

 TemperatureHumidityPressure
High90 °F (Oct 16, 2:53 pm)100% (Oct 10, 6:53 am)30.08 "Hg (Oct 10, 6:53 am)
Low68 °F (Oct 12, 5:53 am)52% (Oct 16, 2:53 pm)29.79 "Hg (Oct 8, 2:53 am)
Average79 °F78%29.95 "Hg
* Reported Oct 2 3:53 pm — Oct 17 3:53 pm, Melbourne. Weather by CustomWeather, © 2019

Note: Actual official high and low records may vary slightly from our data, if they occured in-between our weather recording intervals... More about our weather records

Advertising

Melbourne Weather History for the Previous 24 Hours

Scroll right to see more
 ConditionsComfort  
Time TempWeatherWind HumidityBarometerVisibility
3:53 pm
Thu, Oct 17
86 °FPartly sunny.8 mph53%29.87 "Hg10 mi
3:08 pm86 °FMostly cloudy.10 mph57%29.88 "Hg10 mi
2:53 pm83 °FBroken clouds.No wind65%29.88 "Hg10 mi
1:53 pm83 °FBroken clouds.5 mph65%29.90 "Hg10 mi
12:53 pm82 °FPartly sunny.8 mph67%29.92 "Hg10 mi
11:53 am83 °FPassing clouds.6 mph63%29.94 "Hg10 mi
9:53 am79 °FSunny.7 mph74%29.94 "Hg10 mi
8:53 am75 °FPassing clouds.8 mph88%29.92 "Hg10 mi
7:53 am72 °FSunny.No wind97%29.90 "Hg10 mi
6:53 am72 °FClear.5 mph97%29.89 "Hg10 mi
5:53 am73 °FClear.5 mph97%29.87 "Hg10 mi
4:53 am73 °FClear.7 mph97%29.86 "Hg8 mi
3:53 am74 °FClear.8 mph94%29.86 "Hg10 mi
2:53 am75 °FClear.8 mph94%29.87 "Hg10 mi
1:53 am76 °FClear.8 mph91%29.88 "Hg10 mi
12:53 am77 °FPassing clouds.8 mph88%29.88 "Hg10 mi
12:31 am78 °FPassing clouds.7 mph84%29.89 "Hg10 mi
11:53 pm
Wed, Oct 16
78 °FPartly cloudy.10 mph84%29.90 "Hg10 mi
10:53 pm78 °FPassing clouds.10 mph82%29.90 "Hg10 mi
9:53 pm78 °FClear.9 mph82%29.87 "Hg10 mi
8:53 pm78 °FClear.7 mph82%29.85 "Hg10 mi
7:53 pm79 °FClear.6 mph79%29.85 "Hg10 mi
6:53 pm80 °FPassing clouds.8 mph76%29.85 "Hg10 mi
5:53 pm87 °FScattered clouds.12 mph63%29.84 "Hg10 mi
Weather by CustomWeather, © 2019

See weather overview